Tracking 35237 objects as of 4-Sep-2026
HD Live streaming from Space Station
objects crossing your sky now

COSMOS 2421 DEB


COSMOS 2421 DEB is no longer on orbit


NORAD ID: 32940
Int'l Code: 2006-026GT
Launch date: June 25, 2006
Source: Commonwealth of Independent States (former USSR) (CIS)
Launch site: TYURATAM MISSILE AND SPACE COMPLEX (TTMTR)
Decay date: 2008-07-03

Note: This is SATELLITE DEBRIS
Your satellite tracking list
Your tracking list is empty




NASA's NSSDC Master Catalog

Two Line Element Set (TLE):
1 32940U 06026GT  08184.95438845  .03361632  17107-1  48634-2 0  9997
2 32940 065.0241 026.8441 0023005 273.4849 086.9083 16.07487145  8544
Source of the keplerian elements: AFSPC